• în România
  • Lista ţărilor
  • Pe 7 zile
  • Temperatura apei
  • Hartă satelitară
  • Meteo pe hartă
  • Widget-uri
  • user-avatar
    Intrare

    Meteo pe oră la Lugovoe

    Astăzi, 22 Iulie, Duminică

    Timp Temperatura Precipitaţii Vânt Presiune Umiditate
    00:00 +20°C° 0 mm 4 m/s 741 mmHg 96%
    01:00 +19°C° 0 mm 4 m/s 741 mmHg 96%
    02:00 +19°C° 0 mm 4 m/s 741 mmHg 97%
    03:00 +19°C° 0 mm 3 m/s 741 mmHg 98%
    04:00 +19°C° 0,1 mm 3 m/s 741 mmHg 98%
    05:00 +19°C° 0,1 mm 4 m/s 741 mmHg 97%
    06:00 +20°C° 0,1 mm 5 m/s 741 mmHg 97%
    07:00 +20°C° 0 mm 5 m/s 741 mmHg 96%
    08:00 +20°C° 0 mm 5 m/s 742 mmHg 95%
    09:00 +20°C° 0 mm 5 m/s 742 mmHg 94%
    10:00 +20°C° 0 mm 5 m/s 742 mmHg 93%
    11:00 +21°C° 0 mm 5 m/s 742 mmHg 91%
    12:00 +21°C° 0 mm 5 m/s 742 mmHg 90%
    13:00 +21°C° 0 mm 5 m/s 742 mmHg 88%
    14:00 +22°C° 0 mm 5 m/s 742 mmHg 86%
    15:00 +22°C° 0 mm 6 m/s 742 mmHg 85%
    16:00 +22°C° 0,2 mm 5 m/s 742 mmHg 85%
    17:00 +22°C° 0,2 mm 5 m/s 741 mmHg 85%
    18:00 +22°C° 0,2 mm 5 m/s 741 mmHg 85%
    19:00 +21°C° 0 mm 5 m/s 741 mmHg 88%
    20:00 +21°C° 0 mm 5 m/s 741 mmHg 90%
    21:00 +20°C° 0 mm 5 m/s 741 mmHg 93%
    22:00 +20°C° 0,3 mm 5 m/s 741 mmHg 93%
    23:00 +19°C° 0,3 mm 5 m/s 741 mmHg 93%

    Mâine, 23 Iulie, Luni

    Timp Temperatura Precipitaţii Vânt Presiune Umiditate
    00:00 +19°C° 0,3 mm 5 m/s 741 mmHg 93%
    01:00 +19°C° 0,1 mm 5 m/s 741 mmHg 93%
    02:00 +19°C° 0,1 mm 5 m/s 741 mmHg 93%
    03:00 +19°C° 0,1 mm 5 m/s 741 mmHg 93%
    04:00 +17°C° 0,1 mm 5 m/s 742 mmHg 93%
    05:00 +17°C° 0,1 mm 5 m/s 742 mmHg 93%
    06:00 +17°C° 0,1 mm 5 m/s 742 mmHg 94%
    07:00 +17°C° 0,1 mm 5 m/s 742 mmHg 93%
    08:00 +17°C° 0,1 mm 5 m/s 742 mmHg 92%
    09:00 +17°C° 0,1 mm 6 m/s 742 mmHg 92%
    10:00 +17°C° 0,2 mm 6 m/s 742 mmHg 91%
    11:00 +17°C° 0,2 mm 6 m/s 742 mmHg 90%
    12:00 +19°C° 0,2 mm 6 m/s 742 mmHg 89%
    13:00 +19°C° 0,4 mm 5 m/s 742 mmHg 89%
    14:00 +20°C° 0,4 mm 5 m/s 742 mmHg 89%
    15:00 +20°C° 0,4 mm 5 m/s 742 mmHg 89%
    16:00 +20°C° 0,1 mm 5 m/s 742 mmHg 89%
    17:00 +21°C° 0,1 mm 5 m/s 742 mmHg 89%
    18:00 +21°C° 0,1 mm 5 m/s 742 mmHg 89%
    19:00 +21°C° 0,5 mm 5 m/s 742 mmHg 91%
    20:00 +20°C° 0,5 mm 5 m/s 742 mmHg 93%
    21:00 +20°C° 0,5 mm 5 m/s 742 mmHg 94%
    22:00 +20°C° 0,8 mm 5 m/s 742 mmHg 95%
    23:00 +20°C° 0,8 mm 5 m/s 742 mmHg 95%

    Poimâine, 24 Iulie, Marţi

    Timp Temperatura Precipitaţii Vânt Presiune Umiditate
    00:00 +20°C° 0,8 mm 5 m/s 743 mmHg 96%
    01:00 +20°C° 0,1 mm 5 m/s 743 mmHg 96%
    02:00 +20°C° 0,1 mm 4 m/s 743 mmHg 96%
    03:00 +19°C° 0,1 mm 4 m/s 743 mmHg 96%
    04:00 +19°C° 0 mm 4 m/s 743 mmHg 96%
    05:00 +19°C° 0 mm 4 m/s 743 mmHg 96%
    06:00 +19°C° 0 mm 4 m/s 743 mmHg 96%
    07:00 +20°C° 0 mm 4 m/s 744 mmHg 94%
    08:00 +21°C° 0 mm 4 m/s 744 mmHg 91%
    09:00 +22°C° 0 mm 4 m/s 744 mmHg 89%
    10:00 +23°C° 0,3 mm 4 m/s 744 mmHg 85%
    11:00 +25°C° 0,3 mm 4 m/s 744 mmHg 82%
    12:00 +26°C° 0,3 mm 4 m/s 745 mmHg 78%
    13:00 +27°C° 0,5 mm 4 m/s 745 mmHg 77%
    14:00 +27°C° 0,5 mm 4 m/s 745 mmHg 76%
    15:00 +27°C° 0,5 mm 5 m/s 745 mmHg 75%
    16:00 +26°C° 1 mm 4 m/s 745 mmHg 79%
    17:00 +25°C° 1 mm 4 m/s 746 mmHg 83%
    18:00 +23°C° 1 mm 4 m/s 746 mmHg 87%
    19:00 +22°C° 0,4 mm 4 m/s 746 mmHg 90%
    20:00 +21°C° 0,4 mm 4 m/s 746 mmHg 92%
    21:00 +20°C° 0,4 mm 3 m/s 746 mmHg 94%
    22:00 +20°C° 0,1 mm 3 m/s 747 mmHg 94%
    23:00 +20°C° 0,1 mm 3 m/s 747 mmHg 94%

    25 Iulie, Miercuri

    Timp Temperatura Precipitaţii Vânt Presiune Umiditate
    00:00 +19°C° 0,1 mm 3 m/s 747 mmHg 93%
    01:00 +19°C° 0 mm 3 m/s 747 mmHg 93%
    02:00 +19°C° 0 mm 3 m/s 747 mmHg 92%
    03:00 +18°C° 0 mm 3 m/s 747 mmHg 92%
    04:00 +18°C° 0 mm 4 m/s 747 mmHg 90%
    05:00 +18°C° 0 mm 4 m/s 747 mmHg 87%
    06:00 +17°C° 0 mm 5 m/s 747 mmHg 85%
    07:00 +19°C° 0 mm 5 m/s 747 mmHg 82%
    08:00 +20°C° 0 mm 6 m/s 747 mmHg 79%
    09:00 +21°C° 0 mm 6 m/s 747 mmHg 75%
    10:00 +21°C° 0 mm 6 m/s 747 mmHg 71%
    11:00 +22°C° 0 mm 6 m/s 748 mmHg 67%
    12:00 +23°C° 0 mm 6 m/s 748 mmHg 63%
    13:00 +24°C° 0 mm 6 m/s 748 mmHg 63%
    14:00 +24°C° 0 mm 6 m/s 748 mmHg 63%
    15:00 +26°C° 0 mm 6 m/s 748 mmHg 63%
    16:00 +26°C° 0 mm 6 m/s 748 mmHg 65%
    17:00 +25°C° 0 mm 5 m/s 748 mmHg 68%
    18:00 +25°C° 0 mm 5 m/s 748 mmHg 70%
    19:00 +23°C° 0 mm 4 m/s 748 mmHg 71%
    20:00 +22°C° 0 mm 4 m/s 749 mmHg 72%
    21:00 +21°C° 0 mm 4 m/s 749 mmHg 73%
    22:00 +21°C° 0 mm 4 m/s 749 mmHg 75%
    23:00 +21°C° 0 mm 4 m/s 749 mmHg 78%

    26 Iulie, Joi

    Timp Temperatura Precipitaţii Vânt Presiune Umiditate
    00:00 +20°C° 0 mm 4 m/s 749 mmHg 80%
    01:00 +19°C° 0 mm 4 m/s 749 mmHg 82%
    02:00 +19°C° 0 mm 4 m/s 749 mmHg 85%
    03:00 +18°C° 0 mm 3 m/s 749 mmHg 87%
    04:00 +18°C° 0 mm 4 m/s 749 mmHg 87%
    05:00 +18°C° 0 mm 4 m/s 749 mmHg 87%
    06:00 +19°C° 0 mm 4 m/s 750 mmHg 86%
    07:00 +20°C° 0 mm 4 m/s 750 mmHg 83%
    08:00 +21°C° 0 mm 5 m/s 750 mmHg 79%
    09:00 +22°C° 0 mm 5 m/s 750 mmHg 76%
    10:00 +23°C° 0 mm 5 m/s 750 mmHg 75%
    11:00 +25°C° 0 mm 5 m/s 750 mmHg 75%
    12:00 +25°C° 0 mm 5 m/s 750 mmHg 74%
    13:00 +26°C° 0 mm 5 m/s 750 mmHg 73%
    14:00 +27°C° 0 mm 4 m/s 750 mmHg 72%
    15:00 +27°C° 0 mm 4 m/s 750 mmHg 72%
    16:00 +27°C° 0,1 mm 4 m/s 750 mmHg 73%
    17:00 +27°C° 0,1 mm 3 m/s 750 mmHg 74%
    18:00 +28°C° 0,1 mm 3 m/s 751 mmHg 75%
    19:00 +26°C° 0 mm 3 m/s 751 mmHg 77%
    20:00 +25°C° 0 mm 3 m/s 751 mmHg 78%
    21:00 +23°C° 0 mm 4 m/s 751 mmHg 80%
    22:00 +23°C° 0,1 mm 4 m/s 751 mmHg 82%
    23:00 +22°C° 0,1 mm 3 m/s 751 mmHg 83%

    27 Iulie, Vineri

    Timp Temperatura Precipitaţii Vânt Presiune Umiditate
    00:00 +22°C° 0,1 mm 3 m/s 751 mmHg 85%
    01:00 +21°C° 0 mm 3 m/s 752 mmHg 86%
    02:00 +21°C° 0 mm 3 m/s 752 mmHg 88%
    03:00 +20°C° 0 mm 3 m/s 752 mmHg 89%
    04:00 +20°C° 0 mm 3 m/s 752 mmHg 88%
    05:00 +20°C° 0 mm 3 m/s 752 mmHg 88%
    06:00 +20°C° 0 mm 3 m/s 752 mmHg 88%
    07:00 +21°C° 0 mm 3 m/s 752 mmHg 83%
    08:00 +23°C° 0 mm 4 m/s 753 mmHg 79%
    09:00 +26°C° 0 mm 4 m/s 753 mmHg 74%
    10:00 +27°C° 0 mm 4 m/s 753 mmHg 68%
    11:00 +28°C° 0 mm 5 m/s 753 mmHg 63%
    12:00 +29°C° 0 mm 5 m/s 753 mmHg 57%
    13:00 +29°C° 0 mm 5 m/s 752 mmHg 57%
    14:00 +29°C° 0 mm 5 m/s 752 mmHg 57%
    15:00 +29°C° 0 mm 4 m/s 752 mmHg 57%
    16:00 +29°C° 0 mm 4 m/s 752 mmHg 61%
    17:00 +28°C° 0 mm 3 m/s 752 mmHg 66%
    18:00 +28°C° 0 mm 3 m/s 752 mmHg 71%
    19:00 +27°C° 0 mm 3 m/s 752 mmHg 73%
    20:00 +25°C° 0 mm 3 m/s 752 mmHg 74%
    21:00 +24°C° 0 mm 2 m/s 752 mmHg 76%
    22:00 +23°C° 0 mm 2 m/s 752 mmHg 78%
    23:00 +23°C° 0 mm 2 m/s 752 mmHg 79%
    Arată mai mult